Home   Weather   Worcester   Past weeks

Flag for USA Past Weather in Worcester, Massachusetts, USA — Yesterday and Last 2 Weeks

Now
18 °F

Clear.


Feels Like: 10 °F
Forecast: 17 / 32 °F
Wind: 6 mph from West

Location: Worcester Regional Airport

Current Time: Dec 10, 2016 at 9:35:07 pm

Latest Report: Dec 10, 2016 at 8:54 pm


Visibility: 10 mi

Pressure: 30.39 "Hg

Humidity: 57%

Dew Point: 5 °F

Location of WorcesterLocation

Past Weather in Worcester — Graph

°F

Worcester Temperature Yesterday

Maximum temperature yesterday: 30 °F (at 12:54 pm)
Minimum temperature yesterday: 20 °F (at 11:54 pm)
Average temperature yesterday: 26 °F

High & Low Weather Summary for the Past Weeks

 TemperatureHumidityPressure
High56 °F (Nov 29, 9:54 pm)97% (Nov 25, 9:54 pm)30.38 "Hg (Nov 25, 9:54 pm)
Low15 °F (Dec 10, 6:54 am)37% (Dec 10, 2:54 pm)29.44 "Hg (Dec 1, 4:54 am)
Average35 °F74%29.98 "Hg
* Reported Nov 25 7:54 pm — Dec 10 7:54 pm, Worcester, Weather by CustomWeather, © 2016

Note: Actual official high and low records may vary slightly from our data, if they occured in-between our weather recording intervals... More about our weather records

Advertising

Worcester Weather History for the Previous 24 Hours

Scroll right to see more
 ConditionsComfort  
Time TempWeatherWind HumidityBarometerVisibility
7:54 pm
Sat, Dec 10
18 °FClear.3 mph52%30.38 "Hg10 mi
6:54 pm20 °FClear.No wind48%30.37 "Hg10 mi
5:54 pm20 °FClear.6 mph50%30.35 "Hg10 mi
4:54 pm21 °FClear.6 mph45%30.32 "Hg10 mi
3:54 pm24 °FSunny.14 mph38%30.30 "Hg10 mi
2:54 pm25 °FSunny.10 mph37%30.27 "Hg10 mi
1:54 pm24 °FSunny.10 mph38%30.26 "Hg10 mi
12:54 pm22 °FSunny.15 mph40%30.26 "Hg10 mi
11:54 am22 °FSunny.14 mph40%30.27 "Hg10 mi
10:54 am20 °FSunny.15 mph48%30.29 "Hg10 mi
9:54 am17 °FSunny.12 mph54%30.31 "Hg10 mi
8:54 am17 °FSunny.13 mph54%30.30 "Hg10 mi
7:54 am16 °FSunny.8 mph56%30.29 "Hg10 mi
6:54 am15 °FClear.6 mph58%30.27 "Hg10 mi
5:54 am16 °FClear.7 mph56%30.25 "Hg10 mi
4:54 am16 °FClear.6 mph56%30.23 "Hg10 mi
3:54 am17 °FClear.6 mph54%30.22 "Hg10 mi
2:54 am17 °FClear.7 mph54%30.22 "Hg10 mi
1:54 am18 °FClear.9 mph52%30.20 "Hg10 mi
12:54 am19 °FClear.10 mph52%30.18 "Hg10 mi
11:54 pm
Fri, Dec 9
20 °FClear.14 mph50%30.18 "Hg10 mi
10:54 pm21 °FPassing clouds.8 mph52%30.17 "Hg10 mi
9:54 pm22 °FPassing clouds.12 mph50%30.16 "Hg10 mi
Weather by CustomWeather, © 2016

See weather overviewHow to use our weather pages